Location: Hains Lake
(37.8540°N, 99.8578°W)
Time: 08:51:17
(UTC+00:00)

Vanguard 1 - Pass Details

Date: 04 December 2021
Orbit: 652 x 3830 km, 34.2° (Epoch: 24 January)

Event Time Altitude Azimuth Distance (km) Brightness Sun altitude
Rises 02:25:13 0° 177° (S) 6,191 14.1 -35.8°
Reaches altitude 10° 02:31:35 10° 158° (SSE) 5,773 13.8 -37.1°
Enters shadow 02:34:49 14° 148° (SSE) 5,711 13.6 -37.7°
